SAA287 VHHH-FAOR

Flight info

Callsign SAA287
Flight time N/A
Altitude 32000
Route PECAN V11 IDOSI P901 IKELA/K0915F320 A1 PAPRA/N0494F320 R575 NILIS/N0487F340 R575 SMU W32 DORNA Y3 PUT P627 BUPRO/N0482F360 P627 KADAP R348 NKW/N0473F380 R348 RUPIG UR348 IXARI/N0466F400 UR348 TNV UB536 EROPA/N0468F280 UB536 ETIVI DCT IMKAN UT446 IBGUB
Aircraft A343/H-SDE2E3FGHIJ4J5M1RWXY/LB1D1

Departure

Time 2026-04-30 22:10
Airport Hong Kong International Airport (VHHH)

Arrival

Time N/A
Airport O.R. Tambo International Airport (FAOR)
Time Latitude Longitude Altitude Speed Heading
2026-04-30 21:59 22.30789 113.92030 33 ft 3 kts 209°
2026-04-30 21:59 22.30804 113.92034 33 ft 2 kts 164°
2026-04-30 21:59 22.30815 113.92030 34 ft 3 kts 161°
2026-04-30 22:00 22.30838 113.92022 36 ft 0 kts 161°
2026-04-30 22:02 22.30835 113.92023 36 ft 2 kts 161°
2026-04-30 22:02 22.30815 113.92030 36 ft 4 kts 161°
2026-04-30 22:03 22.30786 113.92052 36 ft 5 kts 123°
2026-04-30 22:03 22.30781 113.92107 36 ft 9 kts 98°
2026-04-30 22:03 22.30725 113.92155 36 ft 13 kts 157°
2026-04-30 22:03 22.30628 113.92192 36 ft 17 kts 163°
2026-04-30 22:04 22.30553 113.92122 36 ft 16 kts 249°
2026-04-30 22:04 22.30514 113.92001 36 ft 18 kts 251°
2026-04-30 22:04 22.30428 113.91738 36 ft 19 kts 251°
2026-04-30 22:05 22.30398 113.91645 36 ft 20 kts 251°
2026-04-30 22:05 22.30352 113.91502 36 ft 20 kts 251°
2026-04-30 22:05 22.30307 113.91361 36 ft 20 kts 251°
2026-04-30 22:05 22.30263 113.91224 36 ft 19 kts 251°
2026-04-30 22:06 22.30204 113.91044 36 ft 19 kts 251°
2026-04-30 22:06 22.30134 113.90822 36 ft 18 kts 251°
2026-04-30 22:06 22.30092 113.90693 36 ft 18 kts 250°
2026-04-30 22:07 22.30050 113.90566 36 ft 18 kts 251°
2026-04-30 22:07 22.30010 113.90441 36 ft 18 kts 251°
2026-04-30 22:07 22.29970 113.90316 36 ft 17 kts 250°
2026-04-30 22:07 22.29930 113.90194 36 ft 17 kts 250°
2026-04-30 22:08 22.29891 113.90072 36 ft 17 kts 251°
2026-04-30 22:08 22.29853 113.89952 36 ft 17 kts 251°
2026-04-30 22:08 22.29814 113.89833 36 ft 17 kts 251°
2026-04-30 22:08 22.29746 113.89766 36 ft 13 kts 175°
2026-04-30 22:09 22.29653 113.89800 33 ft 15 kts 155°
2026-04-30 22:09 22.29645 113.89884 34 ft 12 kts 71°
2026-04-30 22:09 22.29677 113.89987 34 ft 24 kts 71°
2026-04-30 22:09 22.29792 113.90338 34 ft 77 kts 70°
2026-04-30 22:10 22.30029 113.91071 35 ft 126 kts 71°
2026-04-30 22:10 22.30359 113.92095 35 ft 166 kts 71°
2026-04-30 22:10 22.30790 113.93424 209 ft 190 kts 70°
2026-04-30 22:10 22.31228 113.94777 684 ft 199 kts 71°
2026-04-30 22:11 22.32161 113.97676 1089 ft 210 kts 71°
2026-04-30 22:11 22.32670 113.99263 1239 ft 230 kts 71°
2026-04-30 22:11 22.33200 114.00910 1760 ft 233 kts 71°
2026-04-30 22:12 22.33683 114.02583 2341 ft 234 kts 79°
2026-04-30 22:12 22.33774 114.04331 2882 ft 236 kts 99°
2026-04-30 22:12 22.33267 114.06018 3431 ft 238 kts 121°
2026-04-30 22:12 22.32221 114.07400 3804 ft 248 kts 142°
2026-04-30 22:13 22.30645 114.08307 4101 ft 262 kts 165°
2026-04-30 22:13 22.28830 114.08535 4546 ft 270 kts 179°
2026-04-30 22:13 22.26942 114.08532 5125 ft 273 kts 181°
2026-04-30 22:13 22.24996 114.08527 5594 ft 279 kts 181°
2026-04-30 22:14 22.23054 114.08536 6069 ft 286 kts 181°
2026-04-30 22:14 22.21042 114.08553 6535 ft 291 kts 182°
2026-04-30 22:14 22.19008 114.08577 7012 ft 294 kts 181°
2026-04-30 22:14 22.16966 114.08936 7491 ft 303 kts 160°
2026-04-30 22:15 22.15257 114.10298 7940 ft 314 kts 130°
2026-04-30 22:15 22.14064 114.12300 8406 ft 319 kts 128°
2026-04-30 22:15 22.12433 114.13863 8817 ft 314 kts 158°
2026-04-30 22:15 22.10355 114.14455 9259 ft 308 kts 181°
2026-04-30 22:16 22.08219 114.14393 9754 ft 307 kts 190°
2026-04-30 22:16 22.06105 114.14075 10174 ft 309 kts 194°
2026-04-30 22:17 21.99429 114.12695 10784 ft 342 kts 194°
2026-04-30 22:17 21.97053 114.12245 10989 ft 352 kts 193°
2026-04-30 22:17 21.92089 114.11391 11444 ft 368 kts 192°
2026-04-30 22:18 21.89579 114.10980 11745 ft 373 kts 192°
2026-04-30 22:18 21.84385 114.10137 12437 ft 380 kts 192°
2026-04-30 22:19 21.79120 114.09278 13172 ft 385 kts 192°
2026-04-30 22:19 21.76457 114.08841 13561 ft 388 kts 192°
2026-04-30 22:19 21.71090 114.07958 14265 ft 392 kts 192°
2026-04-30 22:20 21.68386 114.07512 14620 ft 394 kts 192°
2026-04-30 22:20 21.62937 114.06616 15294 ft 398 kts 192°
2026-04-30 22:20 21.60194 114.06165 15637 ft 400 kts 192°
2026-04-30 22:21 21.57430 114.05711 16005 ft 402 kts 192°
2026-04-30 22:21 21.54662 114.05256 16383 ft 403 kts 192°
2026-04-30 22:21 21.51884 114.04801 16755 ft 405 kts 192°
2026-04-30 22:21 21.49087 114.04342 17121 ft 407 kts 192°
2026-04-30 22:22 21.46280 114.03881 17492 ft 409 kts 192°
2026-04-30 22:22 21.43448 114.03517 17858 ft 412 kts 189°
2026-04-30 22:22 21.40579 114.03262 18224 ft 415 kts 188°
2026-04-30 22:22 21.37696 114.03046 18548 ft 417 kts 187°
2026-04-30 22:23 21.34795 114.02850 18861 ft 419 kts 187°
2026-04-30 22:23 21.31874 114.02662 19164 ft 421 kts 187°
2026-04-30 22:23 21.28933 114.02474 19453 ft 423 kts 187°
2026-04-30 22:23 21.26000 114.02284 19775 ft 424 kts 187°
2026-04-30 22:24 21.23051 114.02091 20074 ft 426 kts 187°
2026-04-30 22:24 21.20068 114.01894 20353 ft 428 kts 187°
2026-04-30 22:24 21.17097 114.01696 20658 ft 430 kts 187°
2026-04-30 22:24 21.14092 114.01495 20943 ft 432 kts 187°
2026-04-30 22:25 21.11090 114.01295 21228 ft 434 kts 187°
2026-04-30 22:25 21.08062 114.01092 21521 ft 436 kts 187°
2026-04-30 22:25 21.05032 114.00890 21798 ft 438 kts 187°
2026-04-30 22:25 21.01990 114.00687 22062 ft 440 kts 187°
2026-04-30 22:26 20.95917 113.99881 22590 ft 439 kts 197°
2026-04-30 22:26 20.92994 113.98837 22859 ft 437 kts 206°
2026-04-30 22:26 20.90313 113.97323 23117 ft 436 kts 214°
2026-04-30 22:27 20.87788 113.95517 23389 ft 437 kts 217°
2026-04-30 22:27 20.85324 113.93614 23648 ft 438 kts 218°
2026-04-30 22:27 20.80472 113.89721 24077 ft 441 kts 219°
2026-04-30 22:28 20.75540 113.85772 24533 ft 443 kts 219°
2026-04-30 22:28 20.73065 113.83810 24756 ft 445 kts 219°
2026-04-30 22:29 20.65550 113.77897 25333 ft 451 kts 218°
2026-04-30 22:29 20.63023 113.75913 25571 ft 451 kts 218°
2026-04-30 22:30 20.52877 113.67955 26518 ft 455 kts 218°
2026-04-30 22:31 20.45196 113.61936 27136 ft 459 kts 218°
2026-04-30 22:32 20.37445 113.55870 27722 ft 462 kts 218°
2026-04-30 22:32 20.32175 113.51750 28110 ft 465 kts 218°
2026-04-30 22:33 20.24324 113.45620 28653 ft 468 kts 218°
2026-04-30 22:33 20.19073 113.41524 29206 ft 466 kts 218°
2026-04-30 22:34 20.11239 113.35420 29801 ft 466 kts 218°
2026-04-30 22:35 20.06019 113.31356 30268 ft 464 kts 218°
2026-04-30 22:36 19.95605 113.23261 30967 ft 463 kts 218°
2026-04-30 22:36 19.93032 113.21262 31134 ft 462 kts 218°
2026-04-30 22:37 19.85251 113.15224 31601 ft 461 kts 218°
2026-04-30 22:37 19.82665 113.13219 31735 ft 461 kts 218°
2026-04-30 22:37 19.77472 113.09194 31988 ft 461 kts 218°
2026-04-30 22:38 19.72318 113.05205 31997 ft 456 kts 218°
2026-04-30 22:39 19.64642 112.99268 31999 ft 455 kts 218°
2026-04-30 22:40 19.50137 112.88067 31997 ft 456 kts 218°
2026-04-30 22:41 19.37322 112.78194 32002 ft 455 kts 218°
2026-04-30 22:43 19.21880 112.66446 31992 ft 456 kts 218°
2026-04-30 22:44 19.11523 112.58667 32001 ft 456 kts 218°
2026-04-30 22:45 18.96036 112.47033 31996 ft 457 kts 218°
2026-04-30 22:47 18.80541 112.35325 31993 ft 456 kts 218°
2026-04-30 22:48 18.70182 112.27527 31992 ft 456 kts 218°
2026-04-30 22:49 18.63600 112.20441 31993 ft 451 kts 236°
2026-04-30 22:49 18.58354 112.12234 31996 ft 452 kts 238°
2026-04-30 22:51 18.47965 111.95720 31993 ft 450 kts 237°
2026-04-30 22:52 18.42741 111.87488 31992 ft 451 kts 237°
2026-04-30 22:53 18.35759 111.76496 31993 ft 451 kts 237°
2026-04-30 22:53 18.30530 111.68275 31992 ft 450 kts 237°
2026-04-30 22:55 18.21819 111.54604 31991 ft 450 kts 237°
2026-04-30 22:56 18.14842 111.43676 31992 ft 450 kts 238°
2026-04-30 22:57 18.06112 111.30027 31995 ft 450 kts 238°
2026-04-30 22:58 17.99138 111.19143 31992 ft 450 kts 238°
2026-04-30 22:59 17.88658 111.02824 31989 ft 448 kts 238°